AKJ1403 VAAH-VIDP

Flight info

Callsign AKJ1403
Flight time 1h 6m
Altitude 39000
Route UUD1B UUD A347 UKASO UKASO6C
Aircraft B38M/M-SDE1FGHILORVWXY/HB1

Departure

Time 2026-05-06 17:25
Airport Sardar Vallabh Patel International Airport (VAAH)

Arrival

Time 2026-05-06 18:31
Airport Indira Gandhi International Airport (VIDP)
Time Latitude Longitude Altitude Speed Heading
2026-05-06 16:56 23.07517 72.62610 187 ft 0 kts 315°
2026-05-06 17:13 23.07511 72.62616 186 ft 2 kts 315°
2026-05-06 17:13 23.07501 72.62627 186 ft 2 kts 315°
2026-05-06 17:13 23.07490 72.62639 186 ft 2 kts 315°
2026-05-06 17:14 23.07479 72.62651 186 ft 2 kts 315°
2026-05-06 17:14 23.07470 72.62664 186 ft 2 kts 290°
2026-05-06 17:14 23.07467 72.62680 186 ft 2 kts 265°
2026-05-06 17:14 23.07472 72.62695 186 ft 2 kts 239°
2026-05-06 17:15 23.07482 72.62708 186 ft 2 kts 219°
2026-05-06 17:15 23.07487 72.62712 186 ft 0 kts 224°
2026-05-06 17:15 23.07486 72.62712 186 ft 0 kts 224°
2026-05-06 17:18 23.07484 72.62710 186 ft 2 kts 225°
2026-05-06 17:18 23.07447 72.62669 186 ft 12 kts 226°
2026-05-06 17:19 23.07387 72.62604 186 ft 11 kts 225°
2026-05-06 17:19 23.07334 72.62547 186 ft 10 kts 225°
2026-05-06 17:19 23.07294 72.62504 187 ft 3 kts 219°
2026-05-06 17:19 23.07256 72.62498 188 ft 8 kts 159°
2026-05-06 17:20 23.07213 72.62536 188 ft 8 kts 133°
2026-05-06 17:20 23.07156 72.62578 188 ft 9 kts 175°
2026-05-06 17:20 23.07103 72.62541 189 ft 8 kts 224°
2026-05-06 17:20 23.07052 72.62480 189 ft 13 kts 227°
2026-05-06 17:21 23.06987 72.62406 189 ft 14 kts 225°
2026-05-06 17:21 23.06902 72.62317 189 ft 16 kts 224°
2026-05-06 17:21 23.06822 72.62231 189 ft 15 kts 225°
2026-05-06 17:21 23.06749 72.62151 189 ft 14 kts 225°
2026-05-06 17:22 23.06704 72.62139 189 ft 7 kts 152°
2026-05-06 17:22 23.06685 72.62156 189 ft 0 kts 136°
2026-05-06 17:23 23.06665 72.62176 189 ft 10 kts 136°
2026-05-06 17:23 23.06623 72.62246 189 ft 9 kts 90°
2026-05-06 17:23 23.06658 72.62305 189 ft 4 kts 45°
2026-05-06 17:24 23.06662 72.62309 189 ft 0 kts 45°
2026-05-06 17:24 23.06663 72.62310 189 ft 1 kts 45°
2026-05-06 17:24 23.06753 72.62408 189 ft 49 kts 45°
2026-05-06 17:24 23.07162 72.62842 187 ft 114 kts 45°
2026-05-06 17:25 23.07870 72.63598 193 ft 166 kts 45°
2026-05-06 17:25 23.08752 72.64544 548 ft 181 kts 45°
2026-05-06 17:25 23.09637 72.65534 1169 ft 186 kts 42°
2026-05-06 17:25 23.10621 72.66503 1593 ft 197 kts 36°
2026-05-06 17:26 23.11733 72.67439 1998 ft 209 kts 33°
2026-05-06 17:26 23.12958 72.68424 2330 ft 228 kts 33°
2026-05-06 17:26 23.14281 72.69488 2762 ft 244 kts 34°
2026-05-06 17:26 23.15663 72.70609 3290 ft 255 kts 34°
2026-05-06 17:27 23.17125 72.71797 3734 ft 270 kts 34°
2026-05-06 17:27 23.18652 72.73038 4425 ft 273 kts 35°
2026-05-06 17:27 23.20179 72.74279 5105 ft 277 kts 36°
2026-05-06 17:27 23.21722 72.75531 5794 ft 280 kts 36°
2026-05-06 17:28 23.23282 72.76796 6546 ft 281 kts 36°
2026-05-06 17:28 23.24860 72.78078 7256 ft 284 kts 37°
2026-05-06 17:28 23.26438 72.79359 7995 ft 287 kts 37°
2026-05-06 17:28 23.28046 72.80661 8770 ft 289 kts 37°
2026-05-06 17:29 23.29664 72.81935 9581 ft 290 kts 36°
2026-05-06 17:29 23.31344 72.83230 10239 ft 298 kts 36°
2026-05-06 17:29 23.33063 72.84551 10691 ft 314 kts 36°
2026-05-06 17:29 23.34892 72.85961 11110 ft 330 kts 36°
2026-05-06 17:30 23.36816 72.87448 11525 ft 345 kts 36°
2026-05-06 17:30 23.38819 72.88998 12064 ft 356 kts 36°
2026-05-06 17:30 23.40834 72.90559 12811 ft 359 kts 36°
2026-05-06 17:30 23.42884 72.92148 13572 ft 363 kts 35°
2026-05-06 17:31 23.44962 72.93761 14259 ft 369 kts 35°
2026-05-06 17:31 23.47070 72.95397 14968 ft 374 kts 35°
2026-05-06 17:31 23.49183 72.97066 15711 ft 377 kts 36°
2026-05-06 17:31 23.51290 72.98769 16415 ft 381 kts 36°
2026-05-06 17:32 23.53419 73.00506 17100 ft 386 kts 36°
2026-05-06 17:32 23.55566 73.02261 17775 ft 389 kts 36°
2026-05-06 17:32 23.57744 73.04038 18398 ft 394 kts 35°
2026-05-06 17:32 23.59957 73.05840 19052 ft 398 kts 35°
2026-05-06 17:33 23.62194 73.07656 19652 ft 403 kts 34°
2026-05-06 17:33 23.64452 73.09489 20252 ft 407 kts 34°
2026-05-06 17:33 23.66761 73.11362 20864 ft 411 kts 34°
2026-05-06 17:33 23.69043 73.13215 21486 ft 414 kts 34°
2026-05-06 17:34 23.71369 73.15104 22041 ft 418 kts 34°
2026-05-06 17:34 23.73708 73.17007 22653 ft 421 kts 34°
2026-05-06 17:34 23.76087 73.18948 23192 ft 424 kts 33°
2026-05-06 17:34 23.78456 73.20882 23705 ft 428 kts 33°
2026-05-06 17:35 23.80842 73.22832 24201 ft 431 kts 33°
2026-05-06 17:35 23.83253 73.24802 24628 ft 436 kts 32°
2026-05-06 17:35 23.85672 73.26783 25081 ft 439 kts 32°
2026-05-06 17:36 23.90596 73.30817 25961 ft 446 kts 32°
2026-05-06 17:36 23.93099 73.32870 26425 ft 448 kts 31°
2026-05-06 17:36 23.95614 73.34930 26799 ft 453 kts 31°
2026-05-06 17:36 23.98149 73.37009 27238 ft 456 kts 31°
2026-05-06 17:37 24.00701 73.39101 27565 ft 461 kts 30°
2026-05-06 17:37 24.03267 73.41206 27968 ft 464 kts 30°
2026-05-06 17:37 24.05851 73.43330 28359 ft 466 kts 30°
2026-05-06 17:37 24.08463 73.45476 28748 ft 470 kts 30°
2026-05-06 17:38 24.11059 73.47611 29174 ft 472 kts 30°
2026-05-06 17:38 24.13722 73.49804 29560 ft 475 kts 30°
2026-05-06 17:38 24.16323 73.51950 30176 ft 472 kts 30°
2026-05-06 17:38 24.18943 73.54116 30828 ft 468 kts 29°
2026-05-06 17:39 24.21543 73.56269 31470 ft 465 kts 29°
2026-05-06 17:39 24.24121 73.58400 31898 ft 466 kts 29°
2026-05-06 17:39 24.26682 73.60515 32388 ft 465 kts 29°
2026-05-06 17:39 24.29264 73.62647 32944 ft 463 kts 29°
2026-05-06 17:40 24.31845 73.64781 33506 ft 462 kts 29°
2026-05-06 17:40 24.34415 73.66904 33917 ft 462 kts 29°
2026-05-06 17:40 24.36956 73.69006 34446 ft 460 kts 29°
2026-05-06 17:40 24.39512 73.71123 34879 ft 460 kts 29°
2026-05-06 17:41 24.42051 73.73222 35268 ft 460 kts 29°
2026-05-06 17:41 24.44620 73.75351 35736 ft 459 kts 29°
2026-05-06 17:41 24.47141 73.77439 36097 ft 459 kts 29°
2026-05-06 17:41 24.49705 73.79564 36375 ft 459 kts 29°
2026-05-06 17:42 24.52241 73.81666 36668 ft 459 kts 29°
2026-05-06 17:42 24.54789 73.83778 36868 ft 461 kts 29°
2026-05-06 17:42 24.57334 73.85892 37182 ft 459 kts 29°
2026-05-06 17:42 24.59897 73.88013 37443 ft 458 kts 28°
2026-05-06 17:43 24.62489 73.89974 37611 ft 456 kts 25°
2026-05-06 17:43 24.65138 73.91789 37892 ft 452 kts 22°
2026-05-06 17:43 24.67862 73.93555 38176 ft 451 kts 22°
2026-05-06 17:43 24.70560 73.95255 38395 ft 452 kts 22°
2026-05-06 17:44 24.73280 73.96954 38790 ft 450 kts 21°
2026-05-06 17:44 24.76010 73.98655 38889 ft 453 kts 22°
2026-05-06 17:44 24.81546 74.02119 38896 ft 460 kts 22°
2026-05-06 17:45 24.87088 74.05623 38902 ft 461 kts 22°
2026-05-06 17:45 24.92646 74.09164 38904 ft 459 kts 22°
2026-05-06 17:46 24.98151 74.12680 38904 ft 458 kts 22°
2026-05-06 17:46 25.03681 74.16212 38903 ft 461 kts 22°
2026-05-06 17:47 25.09229 74.19759 38901 ft 461 kts 22°
2026-05-06 17:47 25.14780 74.23319 38897 ft 460 kts 22°
2026-05-06 17:48 25.20307 74.26862 38898 ft 461 kts 22°
2026-05-06 17:48 25.25909 74.30455 38895 ft 462 kts 22°
2026-05-06 17:49 25.31431 74.34000 38891 ft 461 kts 22°
2026-05-06 17:49 25.36975 74.37564 38888 ft 461 kts 22°
2026-05-06 17:50 25.42570 74.41161 38890 ft 462 kts 22°
2026-05-06 17:50 25.48096 74.44721 38871 ft 462 kts 22°
2026-05-06 17:51 25.53671 74.48321 38870 ft 461 kts 22°
2026-05-06 17:51 25.59208 74.51895 38871 ft 462 kts 22°
2026-05-06 17:52 25.64741 74.55469 38859 ft 464 kts 22°
2026-05-06 17:52 25.70328 74.59084 38868 ft 464 kts 22°
2026-05-06 17:53 25.75899 74.62693 38862 ft 463 kts 22°
2026-05-06 17:53 25.81458 74.66301 38868 ft 463 kts 22°
2026-05-06 17:54 25.86989 74.69891 38880 ft 464 kts 22°
2026-05-06 17:54 25.92561 74.73511 38871 ft 464 kts 22°
2026-05-06 17:55 25.98173 74.77161 38867 ft 466 kts 22°
2026-05-06 17:55 26.03721 74.80776 38866 ft 466 kts 22°
2026-05-06 17:56 26.09311 74.84420 38865 ft 466 kts 22°
2026-05-06 17:56 26.14903 74.88070 38865 ft 466 kts 22°
2026-05-06 17:57 26.20475 74.91715 38858 ft 466 kts 22°
2026-05-06 17:57 26.26070 74.95377 38861 ft 466 kts 22°
2026-05-06 17:58 26.31667 74.99046 38859 ft 466 kts 22°
2026-05-06 17:58 26.37242 75.02702 38858 ft 467 kts 22°
2026-05-06 17:59 26.42802 75.06354 38857 ft 465 kts 23°
2026-05-06 17:59 26.48414 75.10034 38853 ft 467 kts 22°
2026-05-06 18:00 26.53985 75.13676 38852 ft 464 kts 22°
2026-05-06 18:00 26.59550 75.17317 38849 ft 466 kts 22°
2026-05-06 18:01 26.65168 75.20998 38847 ft 468 kts 23°
2026-05-06 18:01 26.70761 75.24673 38847 ft 466 kts 22°
2026-05-06 18:02 26.76290 75.28312 38849 ft 466 kts 23°
2026-05-06 18:02 26.81898 75.32001 38852 ft 468 kts 22°
2026-05-06 18:03 26.87558 75.35732 38856 ft 470 kts 23°
2026-05-06 18:03 26.93202 75.39455 38858 ft 469 kts 23°
2026-05-06 18:04 26.98764 75.43126 38863 ft 469 kts 23°
2026-05-06 18:04 27.04409 75.46860 38867 ft 470 kts 23°
2026-05-06 18:05 27.10009 75.50571 38868 ft 468 kts 23°
2026-05-06 18:05 27.15635 75.54303 38871 ft 469 kts 23°
2026-05-06 18:06 27.21234 75.58019 38877 ft 468 kts 23°
2026-05-06 18:06 27.26837 75.61742 38870 ft 466 kts 23°
2026-05-06 18:07 27.32317 75.65392 38865 ft 466 kts 23°
2026-05-06 18:07 27.37835 75.69067 38811 ft 461 kts 23°
2026-05-06 18:08 27.40593 75.70910 38380 ft 456 kts 23°
2026-05-06 18:08 27.43274 75.72702 37828 ft 452 kts 23°
2026-05-06 18:08 27.46021 75.74537 37268 ft 450 kts 23°
2026-05-06 18:08 27.48692 75.76320 36699 ft 450 kts 23°
2026-05-06 18:09 27.51412 75.78135 36063 ft 450 kts 23°
2026-05-06 18:09 27.54083 75.79917 35414 ft 451 kts 23°
2026-05-06 18:09 27.56788 75.81721 34822 ft 450 kts 23°
2026-05-06 18:09 27.59472 75.83516 34310 ft 448 kts 23°
2026-05-06 18:10 27.62166 75.85357 33768 ft 448 kts 25°
2026-05-06 18:10 27.64695 75.87334 33231 ft 451 kts 29°
2026-05-06 18:10 27.67169 75.89517 32683 ft 452 kts 31°
2026-05-06 18:10 27.69606 75.91814 32184 ft 451 kts 33°
2026-05-06 18:11 27.71960 75.94102 31671 ft 452 kts 34°
2026-05-06 18:11 27.74342 75.96443 31125 ft 452 kts 34°
2026-05-06 18:11 27.76706 75.98768 30575 ft 452 kts 34°
2026-05-06 18:11 27.79086 76.01100 30020 ft 453 kts 35°
2026-05-06 18:12 27.81458 76.03419 29458 ft 452 kts 35°
2026-05-06 18:12 27.83861 76.05763 28855 ft 452 kts 36°
2026-05-06 18:12 27.86214 76.08054 28269 ft 450 kts 36°
2026-05-06 18:12 27.88579 76.10355 27697 ft 448 kts 35°
2026-05-06 18:13 27.90956 76.12667 27123 ft 446 kts 35°
2026-05-06 18:13 27.93291 76.14938 26574 ft 443 kts 35°
2026-05-06 18:13 27.95621 76.17203 26002 ft 440 kts 35°
2026-05-06 18:13 27.97937 76.19457 25442 ft 437 kts 35°
2026-05-06 18:14 28.00232 76.21691 24893 ft 433 kts 35°
2026-05-06 18:14 28.02506 76.23904 24339 ft 430 kts 35°
2026-05-06 18:14 28.04782 76.26119 23763 ft 426 kts 35°
2026-05-06 18:14 28.06999 76.28281 23211 ft 422 kts 35°
2026-05-06 18:15 28.09212 76.30437 22658 ft 418 kts 35°
2026-05-06 18:15 28.11377 76.32549 22115 ft 414 kts 35°
2026-05-06 18:15 28.13493 76.34614 21591 ft 409 kts 35°
2026-05-06 18:15 28.15644 76.36715 21067 ft 405 kts 35°
2026-05-06 18:16 28.17740 76.38763 20552 ft 400 kts 35°
2026-05-06 18:16 28.19860 76.40836 20028 ft 396 kts 36°
2026-05-06 18:16 28.21864 76.42923 19508 ft 395 kts 40°
2026-05-06 18:16 28.23674 76.45256 19058 ft 393 kts 47°
2026-05-06 18:17 28.25232 76.47806 18622 ft 390 kts 52°
2026-05-06 18:17 28.26613 76.50394 18156 ft 386 kts 55°
2026-05-06 18:17 28.27949 76.53056 17680 ft 382 kts 56°
2026-05-06 18:17 28.29229 76.55648 17216 ft 378 kts 56°
2026-05-06 18:18 28.30523 76.58248 16751 ft 374 kts 55°
2026-05-06 18:18 28.31812 76.60812 16276 ft 370 kts 56°
2026-05-06 18:18 28.33086 76.63321 15845 ft 365 kts 55°
2026-05-06 18:18 28.33917 76.64949 15677 ft 358 kts 55°
2026-05-06 18:19 28.35643 76.68510 15276 ft 348 kts 59°
2026-05-06 18:19 28.36665 76.70962 14856 ft 346 kts 61°
2026-05-06 18:19 28.37644 76.73441 14461 ft 343 kts 62°
2026-05-06 18:19 28.38616 76.75922 14063 ft 340 kts 62°
2026-05-06 18:20 28.39576 76.78347 13683 ft 336 kts 62°
2026-05-06 18:20 28.40526 76.80714 13309 ft 333 kts 61°
2026-05-06 18:20 28.41481 76.83073 12938 ft 329 kts 61°
2026-05-06 18:20 28.42434 76.85415 12568 ft 326 kts 61°
2026-05-06 18:21 28.43388 76.87758 12194 ft 323 kts 61°
2026-05-06 18:21 28.44314 76.90038 11832 ft 321 kts 62°
2026-05-06 18:21 28.45243 76.92330 11470 ft 318 kts 62°
2026-05-06 18:21 28.46139 76.94591 11109 ft 316 kts 65°
2026-05-06 18:22 28.46745 76.96892 10829 ft 314 kts 80°
2026-05-06 18:22 28.46709 76.99081 10744 ft 306 kts 98°
2026-05-06 18:22 28.46168 77.01575 10617 ft 295 kts 105°
2026-05-06 18:22 28.45590 77.03752 10375 ft 291 kts 105°
2026-05-06 18:23 28.45042 77.05916 10169 ft 284 kts 104°
2026-05-06 18:23 28.44546 77.08029 10080 ft 274 kts 102°
2026-05-06 18:23 28.44092 77.10074 9937 ft 266 kts 102°
2026-05-06 18:23 28.43663 77.12062 9653 ft 265 kts 102°
2026-05-06 18:24 28.43232 77.14077 9374 ft 264 kts 102°
2026-05-06 18:24 28.42795 77.16114 9076 ft 263 kts 102°
2026-05-06 18:24 28.42361 77.18134 8789 ft 262 kts 102°
2026-05-06 18:24 28.41931 77.20119 8539 ft 259 kts 102°
2026-05-06 18:25 28.41505 77.22089 8329 ft 252 kts 102°
2026-05-06 18:25 28.41105 77.23949 8154 ft 239 kts 100°
2026-05-06 18:25 28.40896 77.25785 7856 ft 232 kts 84°
2026-05-06 18:25 28.41342 77.27462 7459 ft 224 kts 50°
2026-05-06 18:26 28.42410 77.28535 7279 ft 204 kts 26°
2026-05-06 18:26 28.43646 77.29178 7047 ft 193 kts 13°
2026-05-06 18:26 28.44943 77.29512 6715 ft 189 kts
2026-05-06 18:26 28.46233 77.29775 6380 ft 186 kts
2026-05-06 18:27 28.47501 77.30043 5874 ft 195 kts
2026-05-06 18:27 28.48727 77.29984 5456 ft 195 kts 339°
2026-05-06 18:27 28.49851 77.29102 5255 ft 184 kts 310°
2026-05-06 18:27 28.50522 77.27902 5228 ft 183 kts 293°
2026-05-06 18:28 28.50845 77.26479 5221 ft 183 kts 282°
2026-05-06 18:28 28.51069 77.25124 4983 ft 181 kts 284°
2026-05-06 18:28 28.51355 77.23731 4602 ft 184 kts 286°
2026-05-06 18:28 28.51672 77.22320 4274 ft 183 kts 287°
2026-05-06 18:29 28.51972 77.20944 3948 ft 183 kts 285°
2026-05-06 18:29 28.52247 77.19584 3491 ft 181 kts 285°
2026-05-06 18:29 28.52545 77.18214 2949 ft 181 kts 286°
2026-05-06 18:29 28.52850 77.16832 2404 ft 182 kts 286°
2026-05-06 18:30 28.53140 77.15466 1866 ft 182 kts 287°
2026-05-06 18:30 28.53408 77.14236 1465 ft 172 kts 288°
2026-05-06 18:30 28.53685 77.12960 1253 ft 156 kts 287°
2026-05-06 18:30 28.53939 77.11775 1057 ft 153 kts 288°
2026-05-06 18:31 28.54202 77.10597 852 ft 153 kts 287°
2026-05-06 18:31 28.54438 77.09506 781 ft 127 kts 282°
2026-05-06 18:31 28.54606 77.08730 781 ft 76 kts 284°
2026-05-06 18:31 28.54698 77.08297 781 ft 41 kts 285°
2026-05-06 18:32 28.54752 77.08096 781 ft 19 kts 294°
2026-05-06 18:32 28.54831 77.07970 781 ft 20 kts 312°
2026-05-06 18:32 28.54907 77.07875 781 ft 11 kts 312°
2026-05-06 18:32 28.54949 77.07823 781 ft 5 kts 313°
2026-05-06 18:33 28.54982 77.07783 781 ft 10 kts 313°
2026-05-06 18:33 28.55036 77.07718 781 ft 11 kts 310°
2026-05-06 18:33 28.55067 77.07640 781 ft 7 kts 285°
2026-05-06 18:33 28.55112 77.07617 781 ft 12 kts
2026-05-06 18:34 28.55218 77.07648 781 ft 16 kts 14°
2026-05-06 18:34 28.55326 77.07679 781 ft 16 kts 14°
2026-05-06 18:34 28.55451 77.07716 781 ft 19 kts 14°
2026-05-06 18:34 28.55558 77.07748 781 ft 13 kts 15°
2026-05-06 18:35 28.55636 77.07773 781 ft 5 kts 31°
2026-05-06 18:35 28.55642 77.07827 781 ft 11 kts 102°
2026-05-06 18:35 28.55629 77.07886 781 ft 11 kts 104°
2026-05-06 18:35 28.55633 77.07980 781 ft 9 kts 62°
2026-05-06 18:36 28.55661 77.08033 781 ft 4 kts 58°
2026-05-06 18:36 28.55654 77.08061 781 ft 6 kts 144°
2026-05-06 18:36 28.55621 77.08083 781 ft 3 kts 148°
2026-05-06 18:36 28.55605 77.08095 781 ft 2 kts 149°
2026-05-06 18:37 28.55595 77.08101 780 ft 1 kts 149°
2026-05-06 18:37 28.55593 77.08102 780 ft 0 kts 149°